TimeMST,TemperatureF,Dew PointF,Humidity,Sea Level PressureIn,VisibilityMPH,Wind Direction,Wind SpeedMPH,Gust SpeedMPH,PrecipitationIn,Events,Conditions,WindDirDegrees,DateUTC
12:15 AM,6.8,3.2,85,30.23,10.0,North,-9999.0,-,N/A,,Clear,0,2014-01-24 07:15:00
12:35 AM,6.8,3.2,85,30.22,10.0,North,-9999.0,-,N/A,,Clear,0,2014-01-24 07:35:00
12:55 AM,8.6,3.2,79,30.22,10.0,SSW,8.1,-,N/A,,Clear,200,2014-01-24 07:55:00
1:15 AM,6.8,3.2,85,30.21,10.0,South,11.5,-,N/A,,Clear,190,2014-01-24 08:15:00
1:35 AM,8.6,3.2,79,30.20,10.0,North,-9999.0,-,N/A,,Clear,0,2014-01-24 08:35:00
1:55 AM,10.4,5.0,79,30.20,10.0,South,9.2,-,N/A,,Clear,190,2014-01-24 08:55:00
2:15 AM,12.2,6.8,79,30.21,10.0,SSW,9.2,-,N/A,,Clear,210,2014-01-24 09:15:00
2:35 AM,12.2,5.0,73,30.22,10.0,SSW,5.8,-,N/A,,Clear,200,2014-01-24 09:35:00
2:55 AM,12.2,5.0,73,30.22,10.0,South,4.6,-,N/A,,Clear,190,2014-01-24 09:55:00
3:15 AM,14.0,5.0,67,30.22,10.0,Calm,Calm,-,N/A,,Clear,0,2014-01-24 10:15:00
3:35 AM,28.4,8.6,43,30.21,10.0,WNW,21.9,28.8,N/A,,Clear,300,2014-01-24 10:35:00
3:55 AM,30.2,10.4,44,30.20,10.0,WNW,23.0,31.1,N/A,,Clear,300,2014-01-24 10:55:00
4:15 AM,30.2,10.4,44,30.19,10.0,WNW,27.6,33.4,N/A,,Clear,300,2014-01-24 11:15:00
4:35 AM,30.2,8.6,40,30.19,10.0,WNW,24.2,32.2,N/A,,Clear,300,2014-01-24 11:35:00
4:55 AM,30.2,8.6,40,30.20,10.0,WNW,24.2,31.1,N/A,,Clear,300,2014-01-24 11:55:00
5:15 AM,32.0,8.6,38,30.20,10.0,WNW,28.8,35.7,N/A,,Clear,300,2014-01-24 12:15:00
5:35 AM,30.2,8.6,40,30.20,10.0,WNW,27.6,34.5,N/A,,Clear,300,2014-01-24 12:35:00
5:55 AM,30.2,8.6,40,30.21,10.0,WNW,25.3,32.2,N/A,,Clear,300,2014-01-24 12:55:00
6:15 AM,30.2,10.4,44,30.22,10.0,WNW,23.0,26.5,N/A,,Mostly Cloudy,300,2014-01-24 13:15:00
6:35 AM,30.2,10.4,44,30.22,10.0,WNW,19.6,26.5,N/A,,Mostly Cloudy,300,2014-01-24 13:35:00
6:55 AM,30.2,12.2,47,30.21,10.0,WNW,21.9,26.5,N/A,,Overcast,300,2014-01-24 13:55:00
7:15 AM,32.0,10.4,41,30.20,10.0,WNW,24.2,31.1,N/A,,Scattered Clouds,300,2014-01-24 14:15:00
7:35 AM,30.2,10.4,44,30.20,10.0,WNW,19.6,27.6,N/A,,Clear,290,2014-01-24 14:35:00
7:55 AM,28.4,12.2,51,30.21,10.0,WNW,13.8,-,N/A,,Clear,290,2014-01-24 14:55:00
8:15 AM,30.2,14.0,51,30.20,10.0,West,9.2,-,N/A,,Clear,270,2014-01-24 15:15:00
8:35 AM,30.2,12.2,47,30.19,10.0,West,8.1,-,N/A,,Clear,280,2014-01-24 15:35:00
8:55 AM,32.0,14.0,48,30.19,10.0,WNW,13.8,-,N/A,,Clear,290,2014-01-24 15:55:00
9:15 AM,33.8,15.8,48,30.19,10.0,West,12.7,17.3,N/A,,Scattered Clouds,280,2014-01-24 16:15:00
9:35 AM,37.4,14.0,38,30.19,10.0,WNW,16.1,27.6,N/A,,Scattered Clouds,290,2014-01-24 16:35:00
9:55 AM,37.4,15.8,41,30.19,10.0,WNW,17.3,25.3,N/A,,Clear,300,2014-01-24 16:55:00
10:15 AM,39.2,19.4,45,30.19,10.0,NW,15.0,20.7,N/A,,Clear,310,2014-01-24 17:15:00
10:35 AM,41.0,19.4,42,30.18,10.0,WNW,18.4,24.2,N/A,,Clear,300,2014-01-24 17:35:00
10:55 AM,42.8,19.4,39,30.18,10.0,WNW,21.9,29.9,N/A,,Clear,300,2014-01-24 17:55:00
11:15 AM,42.8,19.4,39,30.18,10.0,NW,29.9,36.8,N/A,,Clear,310,2014-01-24 18:15:00
11:35 AM,42.8,19.4,39,30.18,10.0,WNW,25.3,40.3,N/A,,Clear,300,2014-01-24 18:35:00
11:55 AM,44.6,19.4,37,30.16,10.0,WNW,26.5,33.4,N/A,,Clear,300,2014-01-24 18:55:00
12:15 PM,44.6,19.4,37,30.15,10.0,WNW,21.9,34.5,N/A,,Scattered Clouds,300,2014-01-24 19:15:00
12:35 PM,46.4,19.4,34,30.14,10.0,WNW,25.3,32.2,N/A,,Scattered Clouds,300,2014-01-24 19:35:00
12:55 PM,46.4,19.4,34,30.13,10.0,WNW,24.2,31.1,N/A,,Clear,300,2014-01-24 19:55:00
1:15 PM,46.4,19.4,34,30.12,10.0,NW,23.0,29.9,N/A,,Clear,310,2014-01-24 20:15:00
1:35 PM,48.2,19.4,32,30.11,10.0,NW,26.5,34.5,N/A,,Clear,310,2014-01-24 20:35:00
1:55 PM,50.0,19.4,30,30.10,10.0,WNW,24.2,34.5,N/A,,Clear,300,2014-01-24 20:55:00
2:15 PM,50.0,19.4,30,30.09,10.0,NW,31.1,35.7,N/A,,Clear,310,2014-01-24 21:15:00
2:35 PM,50.0,19.4,30,30.08,10.0,NW,29.9,42.6,N/A,,Clear,310,2014-01-24 21:35:00
2:55 PM,50.0,19.4,30,30.07,10.0,NW,33.4,41.4,N/A,,Clear,310,2014-01-24 21:55:00
3:15 PM,50.0,19.4,30,30.09,10.0,NW,27.6,39.1,N/A,,Clear,310,2014-01-24 22:15:00
3:35 PM,50.0,19.4,30,30.09,10.0,NW,29.9,41.4,N/A,,Clear,310,2014-01-24 22:35:00
3:55 PM,50.0,19.4,30,30.09,10.0,WNW,25.3,29.9,N/A,,Clear,300,2014-01-24 22:55:00
4:15 PM,48.2,19.4,32,30.11,10.0,WNW,18.4,26.5,N/A,,Clear,290,2014-01-24 23:15:00
4:35 PM,46.4,17.6,32,30.11,10.0,WNW,17.3,-,N/A,,Clear,290,2014-01-24 23:35:00
4:55 PM,44.6,17.6,34,30.12,10.0,WNW,20.7,24.2,N/A,,Scattered Clouds,300,2014-01-24 23:55:00
5:15 PM,44.6,17.6,34,30.11,10.0,WNW,19.6,26.5,N/A,,Clear,300,2014-01-25 00:15:00
5:35 PM,42.8,17.6,36,30.12,10.0,WNW,23.0,28.8,N/A,,Clear,300,2014-01-25 00:35:00
5:55 PM,42.8,17.6,36,30.12,10.0,WNW,23.0,29.9,N/A,,Clear,300,2014-01-25 00:55:00
6:15 PM,41.0,17.6,39,30.12,10.0,WNW,19.6,25.3,N/A,,Clear,290,2014-01-25 01:15:00
6:35 PM,41.0,17.6,39,30.12,10.0,West,16.1,25.3,N/A,,Clear,280,2014-01-25 01:35:00
6:55 PM,39.2,19.4,45,30.12,10.0,West,12.7,-,N/A,,Clear,280,2014-01-25 01:55:00
7:15 PM,37.4,19.4,48,30.13,10.0,WNW,13.8,-,N/A,,Scattered Clouds,290,2014-01-25 02:15:00
7:35 PM,41.0,17.6,39,30.13,10.0,WNW,16.1,20.7,N/A,,Scattered Clouds,290,2014-01-25 02:35:00
7:55 PM,39.2,17.6,42,30.13,10.0,West,15.0,-,N/A,,Scattered Clouds,280,2014-01-25 02:55:00
8:15 PM,37.4,17.6,45,30.14,10.0,WNW,15.0,-,N/A,,Clear,290,2014-01-25 03:15:00
8:35 PM,41.0,15.8,36,30.14,10.0,WNW,18.4,23.0,N/A,,Mostly Cloudy,290,2014-01-25 03:35:00
8:55 PM,41.0,15.8,36,30.14,10.0,WNW,16.1,-,N/A,,Overcast,290,2014-01-25 03:55:00
9:15 PM,39.2,15.8,39,30.15,10.0,WNW,18.4,-,N/A,,Mostly Cloudy,290,2014-01-25 04:15:00
9:35 PM,41.0,15.8,36,30.14,10.0,WNW,24.2,32.2,N/A,,Scattered Clouds,300,2014-01-25 04:35:00
9:55 PM,42.8,15.8,34,30.13,10.0,WNW,24.2,36.8,N/A,,Clear,300,2014-01-25 04:55:00
10:15 PM,41.0,15.8,36,30.13,10.0,WNW,25.3,33.4,N/A,,Clear,300,2014-01-25 05:15:00
10:35 PM,42.8,14.0,31,30.14,10.0,WNW,26.5,33.4,N/A,,Clear,300,2014-01-25 05:35:00
10:55 PM,41.0,14.0,33,30.15,10.0,WNW,21.9,29.9,N/A,,Clear,300,2014-01-25 05:55:00
11:15 PM,41.0,14.0,33,30.16,10.0,WNW,19.6,25.3,N/A,,Clear,300,2014-01-25 06:15:00
11:35 PM,41.0,14.0,33,30.15,10.0,WNW,20.7,27.6,N/A,,Clear,300,2014-01-25 06:35:00
11:55 PM,39.2,15.8,39,30.16,10.0,West,13.8,-,N/A,,Clear,280,2014-01-25 06:55:00